Location: Unspecified
(31.6167°N, 0.0000°E)
Time: 20:39:18
(UTC+00:00)

Hubble Space Telescope - Visible Passes

Search period start: 04 April 2026 00:00
Search period end: 14 April 2026 00:00
Orbit: 475 x 478 km, 28.5° (Epoch: 28 March)

Date Brightness Start Highest point End Pass type
(mag) Time Alt. Az. Time Alt. Az. Time Alt. Az.
4 Apr 3.0 04:45:51 10° S 04:47:39 13° SSE 04:49:26 10° SE visible
5 Apr 2.9 04:15:40 12° S 04:16:38 13° SSE 04:18:26 10° SE visible
6 Apr 3.1 03:46:25 12° SE 03:46:25 12° SE 03:47:23 10° SE visible
7 Apr 1.6 04:51:09 14° SW 04:53:53 34° SSE 04:57:19 10° E visible
8 Apr 1.5 04:21:47 28° SSW 04:22:50 34° SSE 04:26:16 10° E visible
9 Apr 1.8 03:52:23 32° SE 03:52:23 32° SE 03:55:11 10° E visible
10 Apr 3.0 03:22:57 18° ESE 03:22:57 18° ESE 03:24:06 10° E visible
10 Apr 0.9 04:56:59 13° WSW 05:00:11 52° S 05:03:51 10° ESE visible
11 Apr 0.8 04:27:32 30° WSW 04:29:05 52° S 04:32:44 10° ESE visible
12 Apr 0.8 03:58:06 52° S 03:58:06 52° S 04:01:37 10° ESE visible
13 Apr 2.4 03:28:41 25° ESE 03:28:41 25° ESE 03:30:29 10° ESE visible
13 Apr 1.3 05:02:52 10° W 05:06:22 37° SSW 05:09:51 10° ESE visible
